This demonstration page uses our WeatherBlox Daily Observations layout. Learn more.

Left ArrowRight Arrow

Hourly Observations for May 23, 2022

Temp ( °F °C ) Dew Point ( °F °C ) Humidity (%) Winds ( mph kmh ) Pressure ( in mb ) Visibility ( mi km ) Precip ( " mm )
12:53 am 00:53 Clear 57 13.9 36 2.2 45 45 N 10 17 30.32 1027 10 16 0.00 0.00
1:53 am 01:53 Clear 55 12.8 38 3.3 53 53 N 8 13 30.31 1027 10 16 0.00 0.00
2:53 am 02:53 Clear 54 12.2 38 3.3 55 55 NNE 8 13 30.29 1026 10 16 0.00 0.00
3:53 am 03:53 Clear 53 11.7 38 3.3 57 57 VRB 5 7 30.29 1026 10 16 0.00 0.00
4:53 am 04:53 Clear 51 10.6 40 4.4 66 66 NNE 5 7 30.29 1026 10 16 0.00 0.00
5:53 am 05:53 Clear 51 10.6 39 3.9 64 64 NNW 5 7 30.30 1026 10 16 0.00 0.00
6:53 am 06:53 Sunny 51 10.6 39 3.9 64 64 Calm 30.30 1026 10 16 0.00 0.00
7:53 am 07:53 Sunny 52 11.1 39 3.9 61 61 VRB 6 9 30.31 1026 10 16 0.00 0.00
8:53 am 08:53 Sunny 53 11.7 39 3.9 59 59 NNE 8 13 30.31 1026 10 16 0.00 0.00
9:53 am 09:53 Mostly Cloudy 55 12.8 41 5 59 59 NE 9 15 30.31 1027 10 16 0.00 0.00
10:53 am 10:53 Mostly Cloudy 57 13.9 42 5.6 58 58 NE 8 13 30.29 1026 10 16 0.00 0.00
11:53 am 11:53 Cloudy 59 15 44 6.7 58 58 N 8 13 30.27 1025 10 16 0.00 0.00
12:53 pm 12:53 Cloudy 61 16.1 46 7.8 58 58 NNE 8 13 30.26 1025 10 16 0.00 0.00
1:53 pm 13:53 Mostly Cloudy 62 16.7 47 8.3 58 58 ENE 7 11 30.24 1024 10 16 0.00 0.00
2:53 pm 14:53 Mostly Cloudy 64 17.8 50 10 60 60 ENE 8 13 30.22 1024 10 16 0.00 0.00
3:53 pm 15:53 Cloudy 65 18.3 51 10.6 61 61 NNE 9 15 30.21 1023 10 16 0.00 0.00
4:53 pm 16:53 Mostly Cloudy 65 18.3 52 11.1 63 63 ENE 7 11 30.20 1023 10 16 0.00 0.00
5:53 pm 17:53 Mostly Cloudy 65 18.3 53 11.7 66 66 E 9 15 30.18 1022 10 16 0.00 0.00
6:53 pm 18:53 Cloudy 65 18.3 52 11.1 63 63 E 9 15 30.18 1022 10 16 0.00 0.00
7:53 pm 19:53 Cloudy 64 17.8 52 11.1 65 65 E 9 15 30.19 1022 10 16 0.00 0.00
8:53 pm 20:53 Partly Cloudy 60 15.6 50 10 70 70 E 7 11 30.20 1023 10 16 0.00 0.00
9:53 pm 21:53 Clear 55 12.8 51 10.6 87 87 Calm 30.20 1023 10 16 0.00 0.00
10:53 pm 22:53 Clear 53 11.7 50 10 89 89 Calm 30.21 1023 10 16 0.00 0.00
11:53 pm 23:53 Clear 53 11.7 51 10.6 93 93 Calm 30.20 1023 10 16 0.00 0.00

Powered by AerisWeather